• In Deutschland
  • Länderverzeichnis
  • Für 7 Tage
  • Wassertemperatur
  • Satellitenkarten
  • Wetterkarte
  • Widgets
  • user-avatar
    Anmelden

    Stündliche Wetter Albany

    Heute, 25 November, Samstag

    Zeit Temperatur Niederschläge Wind Luftdruck Luftfeuchtigkeit
    00:00 +16°C° 0 mm 3 m/S 755 mmHg 90%
    01:00 +16°C° 0 mm 3 m/S 755 mmHg 89%
    02:00 +14°C° 0 mm 4 m/S 755 mmHg 88%
    03:00 +14°C° 0 mm 3 m/S 755 mmHg 87%
    04:00 +14°C° 0 mm 3 m/S 756 mmHg 87%
    05:00 +14°C° 0 mm 3 m/S 756 mmHg 86%
    06:00 +17°C° 0 mm 4 m/S 756 mmHg 80%
    07:00 +19°C° 0 mm 4 m/S 756 mmHg 74%
    08:00 +21°C° 0 mm 4 m/S 757 mmHg 68%
    09:00 +21°C° 0 mm 5 m/S 757 mmHg 66%
    10:00 +21°C° 0 mm 5 m/S 757 mmHg 65%
    11:00 +22°C° 0 mm 5 m/S 757 mmHg 63%
    12:00 +22°C° 0 mm 5 m/S 757 mmHg 64%
    13:00 +21°C° 0 mm 5 m/S 757 mmHg 64%
    14:00 +21°C° 0 mm 5 m/S 757 mmHg 64%
    15:00 +20°C° 0 mm 5 m/S 757 mmHg 64%
    16:00 +20°C° 0 mm 5 m/S 757 mmHg 64%
    17:00 +20°C° 0 mm 4 m/S 757 mmHg 63%
    18:00 +19°C° 0 mm 4 m/S 757 mmHg 69%
    19:00 +18°C° 0 mm 4 m/S 758 mmHg 74%
    20:00 +15°C° 0 mm 4 m/S 758 mmHg 79%
    21:00 +15°C° 0 mm 4 m/S 758 mmHg 81%
    22:00 +14°C° 0 mm 4 m/S 759 mmHg 84%
    23:00 +14°C° 0 mm 4 m/S 759 mmHg 86%

    Morgen, 26 November, Sonntag

    Zeit Temperatur Niederschläge Wind Luftdruck Luftfeuchtigkeit
    00:00 +14°C° 0 mm 4 m/S 758 mmHg 87%
    01:00 +14°C° 0 mm 4 m/S 758 mmHg 87%
    02:00 +13°C° 0 mm 3 m/S 758 mmHg 87%
    03:00 +13°C° 0 mm 3 m/S 758 mmHg 86%
    04:00 +14°C° 0 mm 3 m/S 758 mmHg 85%
    05:00 +14°C° 0 mm 3 m/S 758 mmHg 83%
    06:00 +15°C° 0 mm 4 m/S 758 mmHg 79%
    07:00 +17°C° 0 mm 4 m/S 758 mmHg 74%
    08:00 +17°C° 0 mm 5 m/S 758 mmHg 70%
    09:00 +19°C° 0 mm 5 m/S 758 mmHg 69%
    10:00 +19°C° 0 mm 5 m/S 757 mmHg 68%
    11:00 +20°C° 0 mm 5 m/S 757 mmHg 67%
    12:00 +20°C° 0 mm 5 m/S 757 mmHg 66%
    13:00 +21°C° 0 mm 5 m/S 756 mmHg 65%
    14:00 +21°C° 0 mm 5 m/S 756 mmHg 64%
    15:00 +21°C° 0 mm 5 m/S 755 mmHg 65%
    16:00 +20°C° 0 mm 5 m/S 755 mmHg 67%
    17:00 +20°C° 0 mm 6 m/S 755 mmHg 69%
    18:00 +19°C° 0 mm 6 m/S 755 mmHg 73%
    19:00 +17°C° 0 mm 6 m/S 755 mmHg 78%
    20:00 +16°C° 0 mm 6 m/S 755 mmHg 82%
    21:00 +16°C° 0 mm 6 m/S 755 mmHg 83%
    22:00 +16°C° 0 mm 6 m/S 755 mmHg 84%
    23:00 +16°C° 0 mm 6 m/S 755 mmHg 85%

    übermorgen, 27 November, Montag

    Zeit Temperatur Niederschläge Wind Luftdruck Luftfeuchtigkeit
    00:00 +16°C° 0 mm 5 m/S 754 mmHg 84%
    01:00 +16°C° 0 mm 5 m/S 753 mmHg 84%
    02:00 +16°C° 0 mm 5 m/S 753 mmHg 84%
    03:00 +15°C° 0 mm 4 m/S 752 mmHg 85%
    04:00 +15°C° 0 mm 4 m/S 752 mmHg 87%
    05:00 +15°C° 0 mm 4 m/S 752 mmHg 89%
    06:00 +17°C° 0 mm 4 m/S 752 mmHg 83%
    07:00 +19°C° 0 mm 4 m/S 752 mmHg 78%
    08:00 +20°C° 0 mm 4 m/S 752 mmHg 72%
    09:00 +21°C° 0 mm 4 m/S 752 mmHg 72%
    10:00 +21°C° 0 mm 4 m/S 752 mmHg 72%
    11:00 +22°C° 0 mm 4 m/S 751 mmHg 71%
    12:00 +21°C° 0 mm 5 m/S 751 mmHg 74%
    13:00 +20°C° 0 mm 5 m/S 750 mmHg 77%
    14:00 +20°C° 0 mm 5 m/S 750 mmHg 80%
    15:00 +20°C° 0 mm 5 m/S 750 mmHg 78%
    16:00 +21°C° 0 mm 4 m/S 750 mmHg 75%
    17:00 +21°C° 0 mm 4 m/S 749 mmHg 73%
    18:00 +20°C° 0 mm 4 m/S 750 mmHg 79%
    19:00 +19°C° 0 mm 4 m/S 750 mmHg 84%
    20:00 +17°C° 0 mm 3 m/S 751 mmHg 90%
    21:00 +17°C° 0 mm 3 m/S 750 mmHg 90%
    22:00 +17°C° 0 mm 3 m/S 750 mmHg 90%
    23:00 +17°C° 0 mm 3 m/S 750 mmHg 91%

    28 November, Dienstag

    Zeit Temperatur Niederschläge Wind Luftdruck Luftfeuchtigkeit
    00:00 +17°C° 0 mm 3 m/S 750 mmHg 90%
    01:00 +17°C° 0 mm 3 m/S 749 mmHg 90%
    02:00 +17°C° 0 mm 2 m/S 749 mmHg 90%
    03:00 +17°C° 0 mm 3 m/S 749 mmHg 90%
    04:00 +17°C° 0 mm 3 m/S 749 mmHg 90%
    05:00 +15°C° 0 mm 4 m/S 749 mmHg 90%
    06:00 +17°C° 0,1 mm 4 m/S 750 mmHg 85%
    07:00 +17°C° 0,1 mm 5 m/S 750 mmHg 80%
    08:00 +19°C° 0,1 mm 5 m/S 751 mmHg 75%
    09:00 +20°C° 0 mm 5 m/S 751 mmHg 70%
    10:00 +20°C° 0 mm 5 m/S 751 mmHg 66%
    11:00 +21°C° 0 mm 6 m/S 751 mmHg 61%
    12:00 +20°C° 0 mm 6 m/S 751 mmHg 63%
    13:00 +20°C° 0 mm 6 m/S 751 mmHg 65%
    14:00 +20°C° 0 mm 6 m/S 751 mmHg 66%
    15:00 +19°C° 0,1 mm 6 m/S 751 mmHg 65%
    16:00 +19°C° 0,1 mm 6 m/S 751 mmHg 64%
    17:00 +19°C° 0,1 mm 6 m/S 752 mmHg 63%
    18:00 +17°C° 0 mm 6 m/S 752 mmHg 66%
    19:00 +16°C° 0 mm 5 m/S 753 mmHg 69%
    20:00 +15°C° 0 mm 5 m/S 753 mmHg 72%
    21:00 +14°C° 0,1 mm 5 m/S 753 mmHg 76%
    22:00 +14°C° 0,1 mm 5 m/S 754 mmHg 80%
    23:00 +14°C° 0,1 mm 5 m/S 754 mmHg 83%

    29 November, Mittwoch

    Zeit Temperatur Niederschläge Wind Luftdruck Luftfeuchtigkeit
    00:00 +14°C° 0,1 mm 5 m/S 754 mmHg 82%
    01:00 +14°C° 0,1 mm 5 m/S 754 mmHg 81%
    02:00 +14°C° 0,1 mm 5 m/S 755 mmHg 80%
    03:00 +13°C° 0 mm 5 m/S 755 mmHg 78%
    04:00 +13°C° 0 mm 4 m/S 755 mmHg 76%
    05:00 +12°C° 0 mm 4 m/S 756 mmHg 74%
    06:00 +14°C° 0 mm 4 m/S 756 mmHg 68%
    07:00 +16°C° 0 mm 3 m/S 757 mmHg 61%
    08:00 +17°C° 0 mm 3 m/S 757 mmHg 55%
    09:00 +18°C° 0 mm 3 m/S 757 mmHg 54%
    10:00 +18°C° 0 mm 3 m/S 757 mmHg 54%
    11:00 +18°C° 0 mm 4 m/S 757 mmHg 53%
    12:00 +19°C° 0 mm 4 m/S 757 mmHg 51%
    13:00 +19°C° 0 mm 4 m/S 757 mmHg 50%
    14:00 +19°C° 0 mm 4 m/S 757 mmHg 49%
    15:00 +19°C° 0 mm 4 m/S 757 mmHg 50%
    16:00 +19°C° 0 mm 4 m/S 757 mmHg 50%
    17:00 +18°C° 0 mm 4 m/S 757 mmHg 51%
    18:00 +17°C° 0 mm 4 m/S 758 mmHg 54%
    19:00 +15°C° 0 mm 4 m/S 758 mmHg 58%
    20:00 +14°C° 0 mm 4 m/S 758 mmHg 61%
    21:00 +14°C° 0 mm 4 m/S 758 mmHg 63%
    22:00 +14°C° 0 mm 4 m/S 758 mmHg 65%
    23:00 +13°C° 0 mm 4 m/S 758 mmHg 66%

    30 November, Donnerstag

    Zeit Temperatur Niederschläge Wind Luftdruck Luftfeuchtigkeit
    00:00 +14°C° 0 mm 4 m/S 758 mmHg 67%
    01:00 +14°C° 0 mm 5 m/S 757 mmHg 68%
    02:00 +14°C° 0 mm 5 m/S 757 mmHg 69%
    03:00 +14°C° 0,1 mm 5 m/S 757 mmHg 70%
    04:00 +14°C° 0,1 mm 5 m/S 757 mmHg 72%
    05:00 +14°C° 0,1 mm 5 m/S 757 mmHg 73%
    06:00 +15°C° 0,1 mm 6 m/S 758 mmHg 70%
    07:00 +15°C° 0,1 mm 6 m/S 758 mmHg 66%
    08:00 +16°C° 0,1 mm 6 m/S 758 mmHg 63%
    09:00 +17°C° 0,2 mm 7 m/S 758 mmHg 63%
    10:00 +17°C° 0,2 mm 7 m/S 758 mmHg 63%
    11:00 +17°C° 0,2 mm 8 m/S 758 mmHg 62%
    12:00 +17°C° 0,2 mm 8 m/S 758 mmHg 65%
    13:00 +17°C° 0,2 mm 8 m/S 757 mmHg 67%
    14:00 +16°C° 0,2 mm 8 m/S 757 mmHg 69%
    15:00 +16°C° 0,2 mm 8 m/S 757 mmHg 70%
    16:00 +16°C° 0,2 mm 8 m/S 757 mmHg 71%
    17:00 +16°C° 0,2 mm 8 m/S 758 mmHg 72%
    18:00 +15°C° 0,2 mm 8 m/S 758 mmHg 74%
    19:00 +15°C° 0,2 mm 8 m/S 758 mmHg 75%
    20:00 +14°C° 0,2 mm 7 m/S 759 mmHg 77%
    21:00 +14°C° 0,1 mm 7 m/S 759 mmHg 77%
    22:00 +14°C° 0,1 mm 7 m/S 759 mmHg 76%
    23:00 +14°C° 0,1 mm 7 m/S 760 mmHg 75%
    Mehr zeigen